Location: Newark
(22.8000°N, 86.1800°E)
Time: 09:11:20
(UTC+00:00)

STRAND 1 - Visible Passes

Search period start: 06 June 2020 00:00
Search period end: 16 June 2020 00:00
Orbit: 768 x 780 km, 98.5° (Epoch: 05 June)

Date Brightness Start Highest point End Pass type
(mag) Time Alt. Az. Time Alt. Az. Time Alt. Az.
06 Jun ? 13:52:50 10° N 13:57:53 56° WNW 14:02:54 10° SSW visible
07 Jun ? 13:18:50 10° NNE 13:23:55 59° E 13:28:59 10° S visible
07 Jun ? 15:01:52 10° WNW 15:02:31 10° WNW 15:03:10 10° WNW visible
08 Jun ? 14:24:40 10° NNW 14:28:49 25° WNW 14:32:59 10° SW visible
09 Jun ? 13:49:56 10° N 13:55:00 61° WNW 14:00:03 10° SSW visible
10 Jun ? 14:58:12 10° NW 14:59:40 11° WNW 15:01:07 10° W visible
11 Jun ? 14:21:41 10° NNW 14:25:57 27° WNW 14:30:13 10° SW visible
12 Jun ? 13:47:00 10° N 13:52:07 65° WNW 13:57:11 10° SSW visible
13 Jun ? 14:54:51 10° NW 14:56:48 12° WNW 14:58:44 10° W visible
14 Jun ? 14:18:42 10° NNW 14:23:05 29° WNW 14:27:27 10° SW visible
15 Jun ? 13:44:06 10° N 13:49:13 71° WNW 13:54:20 10° SSW visible
